User: anonymous   Login
Location: Choisy
(48.7685°N, 2.4187°E)
Time: 08:25:39
(UTC+00:00)
Language:

COSMO-SKYMED 1 - Orbit

View from above orbital plane
View from above orbital plane
View from above satellite
View from above satellite

Ground track
Ground track

The orbit data is extracted from the following two-line orbital elements,

1 31598U 07023A   22019.74364315  .00000516  00000-0  71357-4 0  9994
2 31598  97.8806 205.5583 0001489 100.7668 259.3733 14.82159291790936
Epoch (UTC): 19 January 2022 17:50:50
Eccentricity: 0.0001489
inclination: 97.8806°
perigee height: 621 km
apogee height: 623 km
right ascension of ascending node: 205.5583°
argument of perigee: 100.7668°
revolutions per day: 14.82159291
mean anomaly at epoch: 259.3733°
orbit number at epoch: 79093

The dashed part of the orbit path shows where the satellite is in the earth's shadow,  

DLR